www.pogodaiklimat.ru

Погода и климат >> Архив погоды >> Узбекистан >> Зарафшан


ПОГОДА в Зарафшане

  • Прогноз погоды в Зарафшане
  • Монитор погоды в Зарафшане

АРХИВ ПОГОДЫ в Зарафшане

Время (UTC), дата Ветер
(напр.,м/с)
 
Видим.   Явления Облачность Т
(С)
Тd
(С)
f
(%)
Тe
(С)
Тes
(С)
Комфортность P
(гПа)
Po
(гПа)
Тmin
(С)
Tmax
(С)
R
(мм)
R24
(мм)
S
(см)
15 18.08 10 км ясно +30.2 +2.1 17 1015.0 966.5 +32.0
18 18.08 н/о ясно +27.8 +3.8 21 1016.2 967.2 +32.0
21 18.08 н/о ясно +25.7 +5.1 27 1015.6 966.6
00 19.08 н/о ясно +19.7 +6.4 42 1016.2 967.2
03 19.08 10 км ясно +24.2 +9.0 38 1017.5 968.5
06 19.08 10 км ясно +29.0 +7.0 25 1017.5 968.8 +19.7
09 19.08 10 км ясно +32.1 +3.2 16 1016.8 968.0
12 19.08 10 км ясно +33.6 +1.7 13 1016.2 967.2
15 19.08 10 км ясно +31.8 +6.1 20 1016.2 967.5 +33.6
18 19.08 н/о ясно +28.6 +4.5 22 1017.5 968.4 +33.6
00 20.08 н/о ясно +22.8 +6.4 35 1017.5 968.2
03 20.08 10 км ясно +25.8 +5.6 27 1018.1 969.1
09 20.08 10 км ясно +33.6 +2.1 14 1016.8 968.0
12 20.08 10 км ясно +34.2 +2.9 14 1016.2 967.3
15 20.08 10 км ясно +32.3 +5.5 19 1015.6 967.0 +34.2
18 20.08 н/о ясно +30.2 +7.1 23 1016.2 967.3 +34.2
21 20.08 н/о ясно +28.1 +7.8 28 1016.2 967.2
00 21.08 н/о ясно +26.3 +9.2 34 1015.6 966.7
03 21.08 10 км ясно +26.0 +10.3 37 1015.0 966.3
06 21.08 10 км ясно +32.6 +8.9 23 1015.0 966.2 +26.0
09 21.08 10 км ясно +35.0 +7.4 18 1014.4 965.6
12 21.08 10 км ясно +35.2 +8.4 19 1013.8 964.5
15 21.08 10 км ясно +33.0 +7.3 20 1012.6 963.9 +35.2
18 21.08 н/о ясно +29.8 +7.0 24 1013.2 964.3 +35.2
21 21.08 н/о ясно +27.5 +6.8 27 1012.0 963.2
00 22.08 н/о ясно +27.0 +8.0 30 1012.0 963.3
03 22.08 10 км ясно +26.0 +10.7 38 1012.6 963.9
09 22.08 10 км ясно +36.2 +7.3 17 1012.0 963.3
12 22.08 10 км 4/0
[Ac cast]
+37.0 +6.4 15 1010.8 962.4
15 22.08 10 км 4/0
[Ac cast]
+33.8 +5.6 17 1010.8 962.4 +37.0
18 22.08 н/о ясно +29.5 +7.4 25 1012.6 963.7 +37.0
21 22.08 н/о ясно +26.7 +6.5 28 1012.0 963.2
00 23.08 н/о ясно +24.3 +7.4 34 1012.0 963.4
03 23.08 10 км ясно +24.2 +9.5 39 1013.2 964.4
06 23.08 10 км ясно +27.6 +7.0 27 1013.8 965.0 +24.2
09 23.08 10 км ясно +29.5 +5.8 22 1013.8 965.0
12 23.08 10 км ясно +29.3 +1.1 16 1013.8 965.0
15 23.08 10 км ясно +26.4 +6.7 29 1014.4 965.4 +29.5
18 23.08 н/о ясно +22.4 +5.8 34 1015.0 966.1 +29.5
21 23.08 н/о ясно +20.2 +5.1 37 1015.6 966.7
00 24.08 н/о ясно +17.6 +4.6 42 1014.4 966.5
03 24.08 10 км ясно +22.6 +6.1 34 1015.6 966.6
06 24.08 10 км ясно +26.6 +5.1 25 1016.8 968.1 +17.6
09 24.08 10 км ясно +30.2 +4.3 19 1015.6 966.7
12 24.08 10 км ясно +32.0 +3.0 16 1013.8 965.1
15 24.08 10 км ясно +30.0 +3.0 18 1013.8 965.2 +32.0
18 24.08 н/о ясно +27.5 +2.9 20 1014.4 965.9 +32.0
03 25.08 10 км ясно +25.4 +4.3 26 1014.4 965.4

 

Местоположение метеостанции Зарафшан (Навоийская область, Узбекистан): широта 41.60 долгота 64.30 высота над уровнем моря 420 м.

В архиве по умолчанию представлена погода в Зарафшане за последнюю неделю. Архивные данные за месяц целиком и за предыдущие месяцы, начиная с января 2011 года, Вы можете получить, выбрав интересующий диапазон дат из раскрывающегося списка и нажав кнопку "Ввод!".


*Определитесь, кто Вы:
робот инопланетянин человек

Внимание! Время в таблицах - всемирное. Для получения местного времени необходимо прибавить поправку, которая равна 5 ч.

Смотрите также архив погоды в соседних городах и на ближайших метеорологических станциях:

Погода в Тамдыбулаке (Навоийская область, Узбекистан) (30 км)
Погода в Учкудуке (Навоийская область, Узбекистан) (75 км)
Погода в Машикудуке (Навоийская область, Узбекистан) (102 км)
Погода в Айякагитме (Узбекистан) (103 км)
Погода в Джангельды (Бухарская область, Узбекистан) (116 км)
Погода в Бузаубае (Хорезмская область, Узбекистан) (153 км)
Погода в Нурате (Навоийская область, Узбекистан) (164 км)
Погода в Акбайтале (Навоийская область, Узбекистан) (172 км)
Погода в Навои (Навоийская область, Узбекистан) (186 км)
Погода в Бухаре (Бухарская область, Узбекистан) (211 км)

Пояснения к столбцам:

Ветер - указаны скорость ветра в м/с - средняя за 10 мин, порывы в срок и между сроками (в фигурных скобках) и направление, откуда дует ветер: С - северный, СВ - северо-восточный, В - восточный, ЮВ - юго-восточный, Ю - южный, ЮЗ - юго-западный, З - западный, СЗ - северо-западный.
Видимость - горизонтальная дальность видимости в метрах или километрах. При видимости от 1 до 10 км при отсутствии осадков обычно наблюдается дымка, при ухудшении видимости до 1 км и менее - туман. В сухую погоду видимость может ухудшаться дымом, пылью или мглою.
Явления - указаны атмосферные явления, наблюдавшиеся в срок или в последний час перед сроком; фигурными скобками обозначены явления, наблюдавшиеся между сроками (за 1-3 часа до срока); квадратными скобками обозначены град или гололедные отложения с указанием их диаметра в мм.
Облачность - указаны через наклонную черту общая и нижняя облачность в баллах и высота нижней границы облаков в метрах; квадратными скобками обозначены формы облаков: Ci - перистые, Cs - перисто-слоистые, Cc - перисто-кучевые, Ac - высококучевые, As - высокослоистые, Sc - слоисто-кучевые, Ns - слоисто-дождевые, Cu - кучевые, Cb - кучево-дождевые. Подробнее классификацию облаков см. в Атласе облаков (PDF).
T - Температура воздуха - температура, измеренная на высоте 2 м над землей.
Td - Температура точки росы - температура, при понижении до которой содержащийся в воздухе водяной пар достигнет насыщения.
f - Относительная влажность воздуха - влажноcть воздуха, измеренная на высоте 2 м над землей.
Te - Эффективная температура - температура, которую ощущает одетый по сезону человек в тени. Характеристика душности погоды. При расчете учитывается влияние влажности воздуха и скорости ветра на теплоощущения человека.
Tes - Эффективная температура на солнце - температура, которую ощущает человек, с поправкой на солнечный нагрев. Характеристика знойности погоды. Зависит от высоты солнца над горизонтом, облачности и скорости ветра. Ночью, в пасмурную погоду, а также при ветре 12 м/с и более поправка равна нулю.
P - Атмосферное давление - приведенное к уровню моря атмосферное давление.
Po - Атмосферное давление - измеренное на уровне метеостанции атмосферное давление.
Tmin - Минимальная температура - минимум температуры воздуха на высоте 2 м над землей.
Tmax - Максимальная температура - максимум температуры воздуха на высоте 2 м над землей.
R - Количество осадков - Количество выпавших осадков за период времени, мм. При наведении курсора мыши на число - период времени, за который выпало указанное количество осадков.
R24 - Количество осадков - Количество выпавших осадков за 24 часа, мм.
S - Снежный покров - Высота снежного покрова, см. При наведении курсора мыши на число - состояние снежного покрова и степень покрытия местности в баллах.